GW2468 Weather Reports


time (UTC)temp
F
wind
direction
speed
knots
gust
knots
rain 1hr
in
rain 24hr
in
rain mn
in
humidity
%
barometer
mb
20260505051643 55 222 2.6 2.6 0.00 0.00 0.00 66 1010.1
20260505051142 55 220 1.7 1.7 0.00 0.00 0.00 66 1010.2
20260505050639 55 219 2.6 2.6 0.00 0.00 0.00 66 1010.2
20260505050138 55 220 2.6 2.6 0.00 0.00 0.00 66 1010.3
20260505041607 56 202 1.7 1.7 0.00 0.00 0.00 64 1010.1
20260505041105 56 220 2.6 2.6 0.00 0.00 0.00 64 1010.2
20260505040602 56 199 0.9 1.7 0.00 0.00 0.00 64 1010.3
20260505040059 57 201 2.6 2.6 0.00 0.00 0.00 63 1010.1
20260505035555 57 217 1.7 1.7 0.00 0.00 0.00 62 1010.3
20260505035052 57 201 1.7 1.7 0.00 0.00 0.00 62 1010.0
20260505034548 57 209 1.7 1.7 0.00 0.00 0.00 61 1010.2
20260505034045 57 207 1.7 2.6 0.00 0.00 0.00 61 1010.1
20260505033542 57 210 1.7 1.7 0.00 0.00 0.00 62 1010.1
20260505033040 58 218 2.6 2.6 0.00 0.00 0.00 61 1010.4
20260505032538 58 216 1.7 1.7 0.00 0.00 0.00 60 1010.4
20260505032034 58 211 1.7 1.7 0.00 0.00 0.00 60 1010.3
20260505031531 58 207 2.6 2.6 0.00 0.00 0.00 59 1010.3
20260505031027 58 214 2.6 2.6 0.00 0.00 0.00 60 1010.5
20260505030525 58 197 4.3 5.2 0.00 0.00 0.00 59 1010.3
20260505030021 58 202 1.7 2.6 0.00 0.00 0.00 60 1010.6
20260505025517 58 214 2.6 2.6 0.00 0.00 0.00 59 1010.5
20260505025016 58 214 1.7 1.7 0.00 0.00 0.00 60 1010.8
20260505024512 59 215 2.6 2.6 0.00 0.00 0.00 59 1010.6
20260505024009 59 223 2.6 2.6 0.00 0.00 0.00 58 1010.4
20260505023506 59 199 1.7 1.7 0.00 0.00 0.00 58 1010.5
20260505023004 59 224 1.7 1.7 0.00 0.00 0.00 58 1010.7
20260505022501 59 215 2.6 2.6 0.00 0.00 0.00 58 1010.6
20260505021958 59 217 1.7 1.7 0.00 0.00 0.00 57 1010.6
20260505021455 59 209 1.7 1.7 0.00 0.00 0.00 58 1010.5
20260505020950 59 208 1.7 1.7 0.00 0.00 0.00 57 1010.7
20260505020445 60 210 2.6 2.6 0.00 0.00 0.00 57 1010.6
20260505015943 60 224 1.7 1.7 0.00 0.00 0.00 57 1010.9
20260505015440 60 222 2.6 2.6 0.00 0.00 0.00 57 1010.7
20260505014937 60 225 1.7 2.6 0.00 0.00 0.00 57 1010.5
20260505014434 60 192 2.6 2.6 0.00 0.00 0.00 57 1010.7
20260505013931 60 221 0.9 1.7 0.00 0.00 0.00 57 1010.7
20260505013428 60 231 1.7 1.7 0.00 0.00 0.00 57 1010.8
20260505012926 60 220 1.7 2.6 0.00 0.00 0.00 56 1010.5
20260505012424 60 219 1.7 1.7 0.00 0.00 0.00 56 1010.5
20260505011920 61 226 1.7 1.7 0.00 0.00 0.00 56 1010.5
20260505011416 61 229 2.6 2.6 0.00 0.00 0.00 55 1010.4
20260505010913 61 173 2.6 4.3 0.00 0.00 0.00 55 1010.5
20260505010409 61 229 2.6 2.6 0.00 0.00 0.00 54 1010.5
20260505005905 62 218 2.6 2.6 0.00 0.00 0.00 54 1010.6
20260505005402 62 208 2.6 4.3 0.00 0.00 0.00 53 1010.2
20260505004859 61 196 3.5 5.2 0.00 0.00 0.00 54 1010.1
20260505004356 61 223 1.7 1.7 0.00 0.00 0.00 54 1010.2
20260505003853 61 209 2.6 4.3 0.00 0.00 0.00 54 1010.0
20260505003350 61 214 0.9 0.9 0.00 0.00 0.00 54 1009.9
20260505002846 62 214 0.0 0.0 0.00 0.00 0.00 53 1009.8
20260505002343 62 178 1.7 1.7 0.00 0.00 0.00 53 1009.8
20260505001841 63 218 1.7 1.7 0.00 0.00 0.00 51 1009.8
20260505001338 63 214 2.6 2.6 0.00 0.00 0.00 51 1009.7
20260505000835 63 245 1.7 1.7 0.00 0.00 0.00 51 1009.9
20260505000333 63 207 1.7 1.7 0.00 0.00 0.00 50 1009.7
20260504235829 63 213 0.9 0.9 0.00 0.00 0.00 51 1009.7
20260504235327 63 217 0.9 1.7 0.00 0.00 0.00 51 1009.8
20260504234823 64 256 1.7 1.7 0.00 0.00 0.00 50 1009.2
20260504234321 63 274 3.5 4.3 0.00 0.00 0.00 50 1009.4
20260504233817 63 223 0.9 1.7 0.00 0.00 0.00 51 1009.5
20260504233313 64 248 0.9 1.7 0.00 0.00 0.00 50 1009.4
20260504232810 64 220 2.6 4.3 0.00 0.00 0.00 49 1009.2
20260504232307 64 225 0.9 0.9 0.00 0.00 0.00 48 1009.2
20260504231804 65 230 0.9 1.7 0.00 0.00 0.00 47 1009.2
20260504231300 65 243 2.6 2.6 0.00 0.00 0.00 48 1009.2
20260504230756 65 231 0.9 0.9 0.00 0.00 0.00 46 1009.0
20260504230254 65 227 0.9 0.9 0.00 0.00 0.00 47 1008.8
20260504225753 65 231 0.9 1.7 0.00 0.00 0.00 46 1008.8
20260504225249 65 235 2.6 2.6 0.00 0.00 0.00 46 1008.8
20260504224746 66 215 3.5 4.3 0.00 0.00 0.00 46 1008.8
20260504224243 66 126 2.6 2.6 0.00 0.00 0.00 46 1008.8
20260504223740 66 190 2.6 4.3 0.00 0.00 0.00 45 1008.7
20260504223235 66 229 2.6 2.6 0.00 0.00 0.00 46 1008.8
20260504222733 66 234 2.6 2.6 0.00 0.00 0.00 45 1009.0
20260504222229 67 219 1.7 2.6 0.00 0.00 0.00 44 1008.8
20260504221727 66 223 0.9 0.9 0.00 0.00 0.00 45 1008.7
20260504221224 66 249 1.7 1.7 0.00 0.00 0.00 46 1008.8
20260504220720 67 254 1.7 1.7 0.00 0.00 0.00 44 1008.9
20260504220218 67 230 1.7 1.7 0.00 0.00 0.00 44 1008.8
20260504215714 68 248 1.7 1.7 0.00 0.00 0.00 43 1008.9
20260504215212 68 279 4.3 5.2 0.00 0.00 0.00 42 1009.1
20260504214707 68 265 2.6 2.6 0.00 0.00 0.00 40 1008.8
20260504214204 68 248 0.9 1.7 0.00 0.00 0.00 41 1008.9
20260504213701 67 249 2.6 2.6 0.00 0.00 0.00 41 1009.0
20260504213157 69 335 0.9 1.7 0.00 0.00 0.00 40 1008.7
20260504212654 69 306 0.9 0.9 0.00 0.00 0.00 40 1009.2
20260504212150 69 319 1.7 1.7 0.00 0.00 0.00 40 1009.2
20260504211648 69 285 1.7 1.7 0.00 0.00 0.00 39 1009.1
20260504211144 70 257 2.6 2.6 0.00 0.00 0.00 39 1009.1
20260504210642 70 253 1.7 1.7 0.00 0.00 0.00 39 1008.9
20260504210138 70 261 1.7 1.7 0.00 0.00 0.00 38 1009.0
20260504205636 70 265 0.9 1.7 0.00 0.00 0.00 39 1009.1
20260504205133 70 272 2.6 2.6 0.00 0.00 0.00 40 1009.4
20260504204631 70 266 1.7 1.7 0.00 0.00 0.00 39 1009.2
20260504204130 70 254 1.7 1.7 0.00 0.00 0.00 39 1009.4
20260504203628 69 160 2.6 5.2 0.00 0.00 0.00 39 1009.1
20260504203125 68 250 0.9 0.9 0.00 0.00 0.00 41 1009.4
20260504202620 67 342 2.6 2.6 0.00 0.00 0.00 42 1009.2
20260504202117 69 253 2.6 4.3 0.00 0.00 0.00 41 1009.4
20260504201614 69 316 0.9 0.9 0.00 0.00 0.00 39 1009.1
20260504201112 70 199 2.6 2.6 0.00 0.00 0.00 39 1009.5
20260504200609 70 256 1.7 2.6 0.00 0.00 0.00 40 1009.5
20260504200105 69 357 1.7 1.7 0.00 0.00 0.00 40 1009.5
20260504195601 68 134 0.9 0.9 0.00 0.00 0.00 40 1009.6
20260504195057 69 193 3.5 4.3 0.00 0.00 0.00 39 1009.7
20260504194554 69 256 1.7 4.3 0.00 0.00 0.00 40 1009.6
20260504194050 68 222 0.9 1.7 0.00 0.00 0.00 39 1009.6
20260504193547 67 222 0.0 0.0 0.00 0.00 0.00 42 1009.7
20260504193045 67 189 2.6 2.6 0.00 0.00 0.00 41 1009.7
20260504192543 68 313 2.6 2.6 0.00 0.00 0.00 41 1009.8
20260504192041 68 257 0.9 1.7 0.00 0.00 0.00 40 1009.8
20260504191538 68 312 1.7 1.7 0.00 0.00 0.00 40 1009.8
20260504191034 67 231 1.7 1.7 0.00 0.00 0.00 39 1009.7
20260504190531 68 209 3.5 5.2 0.00 0.00 0.00 40 1009.8
20260504190027 68 266 4.3 5.2 0.00 0.00 0.00 40 1009.9
20260504185524 68 219 3.5 4.3 0.00 0.00 0.00 39 1009.9
20260504185021 69 267 0.9 1.7 0.00 0.00 0.00 40 1009.7
20260504184516 68 229 1.7 2.6 0.00 0.00 0.00 39 1010.0
20260504184012 68 197 2.6 4.3 0.00 0.00 0.00 39 1009.9
20260504183509 67 191 1.7 1.7 0.00 0.00 0.00 40 1010.1
20260504183008 67 174 4.3 6.1 0.00 0.00 0.00 41 1010.1
20260504182504 66 253 1.7 1.7 0.00 0.00 0.00 41 1010.1
20260504182001 66 224 2.6 4.3 0.00 0.00 0.00 41 1010.2
20260504181458 66 266 2.6 4.3 0.00 0.00 0.00 40 1010.3
20260504180956 65 241 0.9 0.9 0.00 0.00 0.00 41 1010.2
20260504180455 66 275 2.6 2.6 0.00 0.00 0.00 41 1010.2
20260504175953 68 339 2.6 2.6 0.00 0.00 0.00 39 1010.3
20260504175450 67 200 2.6 2.6 0.00 0.00 0.00 39 1010.6
20260504174947 67 245 1.7 1.7 0.00 0.00 0.00 39 1010.6
20260504174445 68 222 1.7 1.7 0.00 0.00 0.00 40 1010.7
20260504173942 69 177 5.2 6.1 0.00 0.00 0.00 37 1010.5
20260504173438 68 329 3.5 5.2 0.00 0.00 0.00 38 1010.8
20260504172936 68 300 0.9 0.9 0.00 0.00 0.00 38 1010.6
20260504172432 67 252 1.7 1.7 0.00 0.00 0.00 38 1010.7
20260504171929 67 250 1.7 1.7 0.00 0.00 0.00 38 1010.7
20260504171426 67 190 2.6 4.3 0.00 0.00 0.00 38 1010.7
20260504170923 66 230 4.3 5.2 0.00 0.00 0.00 39 1010.8
20260504170419 65 227 2.6 2.6 0.00 0.00 0.00 39 1010.9
20260504160338 64 256 1.7 2.6 0.00 0.00 0.00 41 1011.4
20260504150803 62 227 0.9 0.9 0.00 0.00 0.00 44 1012.1
20260504150259 62 222 1.7 1.7 0.00 0.00 0.00 43 1012.3
20260504141229 59 281 2.6 2.6 0.00 0.00 0.00 44 1012.5
20260504140726 59 240 2.6 2.6 0.00 0.00 0.00 47 1012.5
20260504140221 59 198 3.5 5.2 0.00 0.00 0.00 45 1012.7
20260504130650 57 286 2.6 2.6 0.00 0.00 0.00 48 1013.1
20260504130146 57 282 1.7 2.6 0.00 0.00 0.00 47 1013.0
20260504120110 51 291 1.7 1.7 0.00 0.00 0.00 54 1013.0
20260504110538 44 342 0.0 0.0 0.00 0.00 0.00 71 1013.1
20260504100454 42 346 0.0 0.0 0.00 0.00 0.00 72 1012.8
20260504081847 39 346 0.0 0.0 0.00 0.00 0.00 75 1012.8
20260504081343 40 346 0.0 0.0 0.00 0.00 0.00 75 1013.2
20260504080839 40 346 0.0 0.0 0.00 0.00 0.00 74 1013.1
20260504080337 40 346 0.0 0.0 0.00 0.00 0.00 74 1013.0
20260504070304 41 346 0.0 0.0 0.00 0.00 0.00 73 1012.8
20260504060224 41 340 0.0 0.0 0.00 0.00 0.00 73 1012.8